TimeMST,TemperatureF,Dew PointF,Humidity,Sea Level PressureIn,VisibilityMPH,Wind Direction,Wind SpeedMPH,Gust SpeedMPH,PrecipitationIn,Events,Conditions,WindDirDegrees,DateUTC
12:53 AM,39.0,28.9,67,29.57,10.0,SE,5.8,-,N/A,,Scattered Clouds,140,2012-12-12 07:53:00
1:53 AM,37.9,28.0,68,29.57,10.0,ESE,9.2,-,N/A,,Mostly Cloudy,110,2012-12-12 08:53:00
2:53 AM,36.0,28.0,73,29.56,10.0,SE,10.4,-,N/A,,Clear,140,2012-12-12 09:53:00
3:53 AM,37.0,28.0,70,29.54,10.0,Calm,Calm,-,N/A,,Partly Cloudy,0,2012-12-12 10:53:00
4:53 AM,41.0,26.1,55,29.56,10.0,SSW,11.5,-,N/A,,Overcast,200,2012-12-12 11:53:00
5:53 AM,41.0,27.0,57,29.59,10.0,WSW,11.5,-,N/A,,Overcast,250,2012-12-12 12:53:00
6:53 AM,39.0,28.9,67,29.61,10.0,SW,5.8,-,N/A,,Overcast,220,2012-12-12 13:53:00
7:53 AM,39.0,30.0,70,29.63,10.0,SW,10.4,-,0.00,,Overcast,230,2012-12-12 14:53:00
8:53 AM,37.0,28.9,73,29.66,10.0,SW,6.9,-,N/A,,Mostly Cloudy,230,2012-12-12 15:53:00
9:53 AM,39.0,30.0,70,29.69,10.0,SW,5.8,-,N/A,,Overcast,220,2012-12-12 16:53:00
10:53 AM,42.1,30.0,62,29.71,10.0,SW,6.9,-,N/A,,Mostly Cloudy,230,2012-12-12 17:53:00
11:53 AM,44.1,30.9,60,29.71,10.0,West,9.2,-,N/A,,Overcast,280,2012-12-12 18:53:00
12:53 PM,43.0,30.9,62,29.71,10.0,NNW,5.8,-,N/A,,Overcast,340,2012-12-12 19:53:00
1:53 PM,42.1,30.9,65,29.72,10.0,NNW,6.9,-,N/A,,Mostly Cloudy,330,2012-12-12 20:53:00
2:53 PM,42.1,32.0,67,29.74,10.0,NW,5.8,-,N/A,,Mostly Cloudy,310,2012-12-12 21:53:00
3:53 PM,41.0,32.0,70,29.75,10.0,NNE,3.5,-,N/A,,Partly Cloudy,30,2012-12-12 22:53:00
4:53 PM,37.0,30.0,76,29.75,10.0,East,3.5,-,N/A,,Clear,90,2012-12-12 23:53:00
5:53 PM,33.1,28.9,85,29.77,10.0,Calm,Calm,-,N/A,,Clear,0,2012-12-13 00:53:00
6:53 PM,32.0,27.0,82,29.77,10.0,East,4.6,-,N/A,,Partly Cloudy,100,2012-12-13 01:53:00
7:53 PM,37.0,30.9,79,29.77,10.0,NE,3.5,-,N/A,,Overcast,50,2012-12-13 02:53:00
8:53 PM,36.0,30.9,82,29.77,10.0,East,4.6,-,N/A,,Overcast,80,2012-12-13 03:53:00
9:53 PM,37.0,30.9,79,29.78,9.0,ESE,5.8,-,N/A,,Overcast,120,2012-12-13 04:53:00
10:05 PM,37.4,30.2,75,29.80,8.0,ESE,5.8,-,0.00,Rain,Light Rain,120,2012-12-13 05:05:00
10:30 PM,39.2,30.2,70,29.80,10.0,Calm,Calm,-,0.00,Rain,Light Rain,0,2012-12-13 05:30:00
10:53 PM,37.0,30.9,79,29.77,10.0,Calm,Calm,-,0.00,,Overcast,0,2012-12-13 05:53:00
11:53 PM,36.0,32.0,86,29.79,10.0,Calm,Calm,-,0.00,Rain,Light Rain,0,2012-12-13 06:53:00